Hourly Weather Homutec

Today, 13 April, Tuesday

Time Temperature Precipitation Wind Pressure Humidity
00:00 +12°C° 0 mm 4 mps 756 mmHg 67%
01:00 +11°C° 0 mm 4 mps 756 mmHg 66%
02:00 +11°C° 0 mm 4 mps 757 mmHg 65%
03:00 +10°C° 0 mm 4 mps 757 mmHg 64%
04:00 +8°C° 0 mm 4 mps 757 mmHg 65%
05:00 +8°C° 0 mm 4 mps 757 mmHg 67%
06:00 +7°C° 0 mm 4 mps 757 mmHg 68%
07:00 +10°C° 0 mm 4 mps 757 mmHg 61%
08:00 +12°C° 0 mm 5 mps 757 mmHg 54%
09:00 +15°C° 0 mm 5 mps 757 mmHg 46%
10:00 +16°C° 0 mm 6 mps 757 mmHg 40%
11:00 +18°C° 0 mm 7 mps 756 mmHg 34%
12:00 +21°C° 0 mm 7 mps 756 mmHg 28%
13:00 +21°C° 0 mm 7 mps 756 mmHg 28%
14:00 +22°C° 0 mm 8 mps 756 mmHg 27%
15:00 +22°C° 0 mm 8 mps 755 mmHg 26%
16:00 +21°C° 0 mm 7 mps 755 mmHg 30%
17:00 +20°C° 0 mm 6 mps 755 mmHg 33%
18:00 +19°C° 0 mm 6 mps 755 mmHg 36%
19:00 +16°C° 0 mm 5 mps 755 mmHg 42%
20:00 +15°C° 0 mm 5 mps 755 mmHg 47%
21:00 +13°C° 0 mm 5 mps 755 mmHg 52%
22:00 +12°C° 0 mm 4 mps 755 mmHg 55%
23:00 +11°C° 0 mm 4 mps 755 mmHg 59%

Tomorrow, 14 April, Wednesday

Time Temperature Precipitation Wind Pressure Humidity
00:00 +11°C° 0 mm 4 mps 754 mmHg 62%
01:00 +10°C° 0 mm 4 mps 754 mmHg 64%
02:00 +10°C° 0 mm 4 mps 754 mmHg 67%
03:00 +8°C° 0 mm 4 mps 754 mmHg 69%
04:00 +8°C° 0 mm 4 mps 753 mmHg 70%
05:00 +8°C° 0 mm 4 mps 753 mmHg 70%
06:00 +7°C° 0 mm 4 mps 753 mmHg 71%
07:00 +10°C° 0 mm 4 mps 753 mmHg 65%
08:00 +10°C° 0 mm 5 mps 753 mmHg 58%
09:00 +13°C° 0 mm 5 mps 753 mmHg 51%
10:00 +14°C° 0 mm 5 mps 752 mmHg 46%
11:00 +16°C° 0 mm 5 mps 752 mmHg 41%
12:00 +17°C° 0 mm 5 mps 752 mmHg 36%
13:00 +19°C° 0 mm 5 mps 752 mmHg 33%
14:00 +20°C° 0 mm 5 mps 751 mmHg 30%
15:00 +20°C° 0 mm 6 mps 751 mmHg 27%
16:00 +20°C° 0 mm 5 mps 751 mmHg 31%
17:00 +19°C° 0 mm 4 mps 750 mmHg 35%
18:00 +18°C° 0 mm 3 mps 750 mmHg 39%
19:00 +17°C° 0 mm 4 mps 750 mmHg 44%
20:00 +14°C° 0 mm 4 mps 750 mmHg 49%
21:00 +13°C° 0 mm 4 mps 750 mmHg 54%
22:00 +12°C° 0 mm 4 mps 750 mmHg 56%
23:00 +12°C° 0 mm 3 mps 750 mmHg 57%

Day after tomorrow, 15 April, Thursday

Time Temperature Precipitation Wind Pressure Humidity
00:00 +11°C° 0 mm 3 mps 749 mmHg 59%
01:00 +11°C° 0 mm 3 mps 749 mmHg 61%
02:00 +10°C° 0 mm 3 mps 749 mmHg 64%
03:00 +10°C° 0 mm 3 mps 749 mmHg 67%
04:00 +10°C° 0 mm 3 mps 749 mmHg 69%
05:00 +10°C° 0 mm 3 mps 749 mmHg 70%
06:00 +10°C° 0 mm 3 mps 749 mmHg 72%
07:00 +11°C° 0 mm 3 mps 748 mmHg 67%
08:00 +13°C° 0 mm 4 mps 748 mmHg 62%
09:00 +14°C° 0 mm 4 mps 748 mmHg 57%
10:00 +15°C° 0 mm 4 mps 748 mmHg 52%
11:00 +18°C° 0 mm 4 mps 748 mmHg 48%
12:00 +19°C° 0 mm 4 mps 748 mmHg 43%
13:00 +19°C° 0 mm 4 mps 748 mmHg 41%
14:00 +20°C° 0 mm 4 mps 747 mmHg 39%
15:00 +20°C° 0 mm 4 mps 747 mmHg 37%
16:00 +19°C° 0 mm 4 mps 747 mmHg 41%
17:00 +19°C° 0 mm 3 mps 747 mmHg 45%
18:00 +18°C° 0 mm 3 mps 747 mmHg 50%
19:00 +17°C° 0 mm 3 mps 747 mmHg 55%
20:00 +16°C° 0 mm 2 mps 747 mmHg 60%
21:00 +14°C° 0 mm 2 mps 747 mmHg 66%
22:00 +14°C° 0 mm 2 mps 747 mmHg 68%
23:00 +14°C° 0 mm 2 mps 747 mmHg 71%

16 April, Friday

Time Temperature Precipitation Wind Pressure Humidity
00:00 +13°C° 0 mm 2 mps 747 mmHg 73%
01:00 +13°C° 0 mm 2 mps 747 mmHg 73%
02:00 +12°C° 0 mm 2 mps 747 mmHg 74%
03:00 +12°C° 0 mm 2 mps 747 mmHg 74%
04:00 +12°C° 0 mm 2 mps 747 mmHg 75%
05:00 +10°C° 0 mm 2 mps 747 mmHg 77%
06:00 +11°C° 0 mm 1 mps 747 mmHg 78%
07:00 +12°C° 0 mm 1 mps 747 mmHg 72%
08:00 +14°C° 0 mm 1 mps 747 mmHg 66%
09:00 +15°C° 0 mm 1 mps 747 mmHg 60%
10:00 +18°C° 0 mm 1 mps 747 mmHg 56%
11:00 +19°C° 0 mm 1 mps 748 mmHg 51%
12:00 +20°C° 0 mm 1 mps 748 mmHg 47%
13:00 +20°C° 0 mm 2 mps 748 mmHg 43%
14:00 +20°C° 0 mm 2 mps 748 mmHg 40%
15:00 +21°C° 0 mm 3 mps 747 mmHg 37%
16:00 +20°C° 0 mm 3 mps 748 mmHg 42%
17:00 +19°C° 0 mm 2 mps 748 mmHg 47%
18:00 +18°C° 0 mm 2 mps 748 mmHg 53%
19:00 +17°C° 0.4 mm 3 mps 748 mmHg 59%
20:00 +14°C° 0.4 mm 3 mps 748 mmHg 64%
21:00 +13°C° 0.4 mm 4 mps 748 mmHg 70%
22:00 +13°C° 0.1 mm 3 mps 749 mmHg 72%
23:00 +12°C° 0.1 mm 3 mps 749 mmHg 74%

17 April, Saturday

Time Temperature Precipitation Wind Pressure Humidity
00:00 +12°C° 0.1 mm 3 mps 749 mmHg 75%
01:00 +11°C° 0 mm 3 mps 749 mmHg 78%
02:00 +11°C° 0 mm 4 mps 749 mmHg 81%
03:00 +9°C° 0 mm 5 mps 749 mmHg 84%
04:00 +9°C° 0 mm 5 mps 749 mmHg 87%
05:00 +9°C° 0 mm 5 mps 749 mmHg 89%
06:00 +8°C° 0 mm 5 mps 749 mmHg 92%
07:00 +9°C° 0 mm 6 mps 749 mmHg 86%
08:00 +10°C° 0 mm 6 mps 750 mmHg 80%
09:00 +12°C° 0 mm 7 mps 750 mmHg 75%
10:00 +12°C° 0.1 mm 7 mps 750 mmHg 71%
11:00 +14°C° 0.1 mm 7 mps 750 mmHg 67%
12:00 +14°C° 0.1 mm 7 mps 751 mmHg 64%
13:00 +13°C° 0.4 mm 8 mps 751 mmHg 64%
14:00 +13°C° 0.4 mm 8 mps 751 mmHg 64%
15:00 +13°C° 0.4 mm 8 mps 751 mmHg 64%
16:00 +12°C° 0.5 mm 7 mps 751 mmHg 66%
17:00 +11°C° 0.5 mm 7 mps 752 mmHg 67%
18:00 +11°C° 0.5 mm 6 mps 752 mmHg 69%
19:00 +11°C° 0.1 mm 6 mps 753 mmHg 65%
20:00 +10°C° 0.1 mm 6 mps 753 mmHg 62%
21:00 +10°C° 0.1 mm 6 mps 753 mmHg 58%
22:00 +9°C° 0 mm 7 mps 754 mmHg 57%
23:00 +9°C° 0 mm 7 mps 754 mmHg 55%

18 April, Sunday

Time Temperature Precipitation Wind Pressure Humidity
00:00 +8°C° 0 mm 7 mps 755 mmHg 53%
01:00 +6°C° 0 mm 7 mps 755 mmHg 55%
02:00 +5°C° 0 mm 7 mps 756 mmHg 57%
03:00 +4°C° 0 mm 6 mps 757 mmHg 59%
04:00 +3°C° 0 mm 6 mps 757 mmHg 59%
05:00 +2°C° 0 mm 6 mps 758 mmHg 58%
06:00 +2°C° 0 mm 6 mps 758 mmHg 58%
07:00 +3°C° 0 mm 6 mps 758 mmHg 54%
08:00 +4°C° 0 mm 6 mps 759 mmHg 51%
09:00 +5°C° 0 mm 6 mps 759 mmHg 47%
10:00 +7°C° 0 mm 6 mps 759 mmHg 42%
11:00 +8°C° 0 mm 6 mps 760 mmHg 37%
12:00 +9°C° 0 mm 6 mps 760 mmHg 33%
13:00 +9°C° 0 mm 5 mps 760 mmHg 31%
14:00 +10°C° 0 mm 5 mps 760 mmHg 28%
15:00 +10°C° 0 mm 5 mps 759 mmHg 26%
16:00 +10°C° 0 mm 5 mps 759 mmHg 28%
17:00 +11°C° 0 mm 4 mps 760 mmHg 31%
18:00 +10°C° 0 mm 4 mps 760 mmHg 33%
19:00 +9°C° 0 mm 3 mps 760 mmHg 37%
20:00 +8°C° 0 mm 3 mps 760 mmHg 41%
21:00 +5°C° 0 mm 3 mps 760 mmHg 45%
22:00 +5°C° 0 mm 3 mps 760 mmHg 46%
23:00 +4°C° 0 mm 3 mps 760 mmHg 47%
Show more